Edithburgh AWS, Australia

10:12 PM ACDT on March 28, 2017 (GMT +1030)
Edithburgh AWS

Weather History for 94809 - October, 2013

Change the Weather History Date:

Tuesday, October 15, 2013

  Actual Average Record
Temperature  
Mean Temperature 54 °F -  
Max Temperature 72 °F - - ()
Min Temperature 36 °F - - ()
Degree Days  
Heating Degree Days 11    
Growing Degree Days 4 (Base 50)    
Moisture  
Dew Point 38 °F    
Average Humidity 55    
Maximum Humidity 94    
Minimum Humidity 11    
Precipitation  
Precipitation 0.00 in - - ()
Sea Level Pressure  
Sea Level Pressure 30.13 in    
Wind  
Wind Speed 8 mph ()    
Max Wind Speed 23 mph    
Max Gust Speed -    
T = Trace of Precipitation, MM = Missing Value Source: Averaged Metar Reports

Daily Weather History Graph

Daily Weather History Graph

Search for Another Location

Airport or City:

Trip Planner

Search our weather history database for the weather conditions in past years. The results will help you decide how hot, cold, wet, or windy it might be!

Date:

Astronomy

Oct. 15, 2013 Rise Set
Actual Time 6:36 AM ACDT 7:33 PM ACDT
Civil Twilight 6:10 AM ACDT 7:59 PM ACDT
Nautical Twilight 5:40 AM ACDT 8:30 PM ACDT
Astronomical Twilight 5:08 AM ACDT 9:01 PM ACDT
Moon 3:48 PM ACDT (10/15) 3:59 AM ACDT (10/15)
Length of Visible Light 13h 48m
Length of Day
12h 56m
Waxing Gibbous, 82% of the Moon is Illuminated
Oct 15
Waxing Gibbous
Oct 19
Full
Oct 27
Last Quarter
Nov 3
New
Nov 10
First Quarter

Hourly Weather History & Observations

Time (ACDT) Temp. Dew Point Humidity Pressure Visibility Wind Dir Wind Speed Gust Speed Precip Events Conditions
12:00 AM 44 °F 41 °F 85% 30.26 in - WNW 3.5 mph - -  
12:30 AM 42 °F 39 °F 85% 30.26 in - NW 8.1 mph - -  
2:30 AM 39 °F 38 °F 92% 30.21 in - NW 8.1 mph - -  
3:00 AM 38 °F 36 °F 87% 30.20 in - NNW 8.1 mph - -  
3:30 AM 38 °F 36 °F 90% 30.20 in - NNW 8.1 mph - -  
5:30 AM 36 °F 35 °F 94% 30.21 in - NNW 8.1 mph - -  
6:30 AM 38 °F 36 °F 90% 30.22 in - NW 8.1 mph - -  
8:30 AM 53 °F 45 °F 65% 30.24 in - North 6.9 mph - -  
9:30 AM 59 °F 43 °F 43% 30.23 in - North 11.5 mph - -  
11:30 AM 68 °F 40 °F 25% 30.16 in - NNW 16.1 mph - -  
12:00 PM 70 °F 39 °F 21% 30.14 in - NNW 16.1 mph - -  
12:30 PM 71 °F 38 °F 20% 30.13 in - NNW 17.3 mph - -  
2:30 PM 72 °F 29 °F 11% 30.07 in - NW 23.0 mph - -  
5:30 PM 72 °F 35 °F 16% 30.01 in - NW 12.7 mph - -  
6:00 PM 70 °F 34 °F 16% 30.01 in - WNW 10.4 mph - -  
6:30 PM 68 °F 39 °F 23% 30.01 in - WNW 6.9 mph - -  
8:30 PM 50 °F 43 °F 69% 30.00 in - NNW 6.9 mph - -  
9:30 PM 50 °F 41 °F 62% 30.00 in - NW 8.1 mph - -  
11:30 PM 51 °F 41 °F 60% 29.93 in - North 5.8 mph - -